EZY379 EDXW-EKCH

Flight info

Callsign EZY379
Flight time N/A
Altitude 18000
Route OLDIP1A OLDIP DCT DOSUR P729 TUDLO
Aircraft A20N/M-SDE2E3FGHIRWXY/LB1

Departure

Time 2026-04-16 15:05
Airport Westerland Sylt Airport (EDXW)

Arrival

Time N/A
Airport Copenhagen Kastrup Airport (EKCH)
Time Latitude Longitude Altitude Speed Heading
2026-04-16 14:48 54.91352 8.33119 34 ft 0 kts 91°
2026-04-16 14:59 54.91352 8.33122 34 ft 1 kts 91°
2026-04-16 15:00 54.91352 8.33132 34 ft 3 kts 91°
2026-04-16 15:00 54.91332 8.33185 35 ft 7 kts 162°
2026-04-16 15:00 54.91278 8.33188 38 ft 8 kts 189°
2026-04-16 15:00 54.91211 8.33177 40 ft 12 kts 180°
2026-04-16 15:01 54.91105 8.33179 39 ft 19 kts 180°
2026-04-16 15:01 54.91014 8.33148 39 ft 2 kts 208°
2026-04-16 15:01 54.90990 8.33126 42 ft 6 kts 208°
2026-04-16 15:01 54.90936 8.33126 42 ft 12 kts 152°
2026-04-16 15:02 54.90835 8.33201 40 ft 19 kts 166°
2026-04-16 15:02 54.90682 8.33235 38 ft 25 kts 175°
2026-04-16 15:02 54.90492 8.33280 34 ft 28 kts 161°
2026-04-16 15:02 54.90326 8.33483 33 ft 30 kts 126°
2026-04-16 15:03 54.90265 8.33695 31 ft 19 kts 108°
2026-04-16 15:03 54.90243 8.33954 32 ft 25 kts 97°
2026-04-16 15:03 54.90250 8.34288 33 ft 30 kts 79°
2026-04-16 15:03 54.90276 8.34541 36 ft 33 kts 80°
2026-04-16 15:04 54.90327 8.35013 43 ft 8 kts 76°
2026-04-16 15:04 54.90332 8.35042 43 ft 5 kts 70°
2026-04-16 15:04 54.90348 8.35094 42 ft 10 kts 59°
2026-04-16 15:04 54.90416 8.35156 46 ft 14 kts 347°
2026-04-16 15:05 54.90658 8.34851 41 ft 91 kts 321°
2026-04-16 15:05 54.91370 8.33875 518 ft 146 kts 322°
2026-04-16 15:05 54.92282 8.32968 1674 ft 150 kts 324°
2026-04-16 15:05 54.93102 8.31990 2935 ft 134 kts 318°
2026-04-16 15:06 54.93830 8.31058 3701 ft 127 kts 317°
2026-04-16 15:06 54.94542 8.30138 4095 ft 127 kts 317°
2026-04-16 15:06 54.95259 8.29221 4179 ft 128 kts 317°
2026-04-16 15:06 54.95976 8.28310 4185 ft 131 kts 317°
2026-04-16 15:07 54.96798 8.27255 4263 ft 169 kts 318°
2026-04-16 15:07 54.97874 8.25852 4245 ft 207 kts 317°
2026-04-16 15:07 54.98713 8.23701 4189 ft 238 kts 282°
2026-04-16 15:07 54.98572 8.20598 4199 ft 285 kts 248°
2026-04-16 15:08 54.97379 8.17534 4201 ft 329 kts 230°
2026-04-16 15:08 54.95815 8.14461 4190 ft 344 kts 229°
2026-04-16 15:08 54.94139 8.11448 4261 ft 353 kts 218°
2026-04-16 15:08 54.91859 8.09855 5304 ft 354 kts 191°
2026-04-16 15:09 54.89423 8.09995 6348 ft 363 kts 169°
2026-04-16 15:09 54.87110 8.11840 7291 ft 373 kts 146°
2026-04-16 15:09 54.85387 8.15190 8587 ft 376 kts 123°
2026-04-16 15:09 54.84173 8.19321 9338 ft 392 kts 119°
2026-04-16 15:10 54.82724 8.23398 10091 ft 401 kts 127°
2026-04-16 15:10 54.81097 8.27399 10939 ft 407 kts 127°
2026-04-16 15:10 54.79141 8.30927 11777 ft 408 kts 146°
2026-04-16 15:10 54.76765 8.33521 12614 ft 410 kts 152°
2026-04-16 15:11 54.74493 8.35791 13344 ft 415 kts 153°
2026-04-16 15:11 54.72427 8.37886 14024 ft 419 kts 152°
2026-04-16 15:11 54.69903 8.40500 14718 ft 425 kts 153°
2026-04-16 15:11 54.67309 8.43068 15417 ft 433 kts 149°
2026-04-16 15:12 54.65123 8.46715 16150 ft 444 kts 129°
2026-04-16 15:12 54.63643 8.51455 16885 ft 454 kts 111°
2026-04-16 15:12 54.62960 8.56811 17599 ft 461 kts 99°
2026-04-16 15:12 54.62440 8.62293 18238 ft 466 kts 102°
2026-04-16 15:13 54.61673 8.67693 18558 ft 470 kts 108°
2026-04-16 15:13 54.60737 8.73144 18483 ft 470 kts 101°
2026-04-16 15:13 54.60604 8.78766 18249 ft 470 kts 83°
2026-04-16 15:13 54.61411 8.84209 18192 ft 469 kts 66°
2026-04-16 15:14 54.63061 8.89002 18193 ft 464 kts 49°
2026-04-16 15:14 54.65376 8.92719 18194 ft 457 kts 32°
2026-04-16 15:14 54.68184 8.95164 18213 ft 451 kts 17°
2026-04-16 15:14 54.71146 8.96982 18197 ft 450 kts 18°
2026-04-16 15:15 54.74018 8.99201 18186 ft 454 kts 25°
2026-04-16 15:15 54.76677 9.02126 18185 ft 457 kts 34°
2026-04-16 15:15 54.79118 9.05700 18186 ft 459 kts 41°
2026-04-16 15:15 54.81350 9.09671 18181 ft 460 kts 45°
2026-04-16 15:16 54.83442 9.13841 18175 ft 461 kts 48°
2026-04-16 15:16 54.85483 9.18130 18174 ft 461 kts 49°
2026-04-16 15:16 54.87525 9.22413 18177 ft 461 kts 48°
2026-04-16 15:16 54.89606 9.26678 18177 ft 461 kts 47°
2026-04-16 15:17 54.91700 9.30887 18183 ft 460 kts 47°
2026-04-16 15:17 54.93805 9.35069 18175 ft 459 kts 47°
2026-04-16 15:17 54.95894 9.39197 18181 ft 458 kts 47°
2026-04-16 15:17 54.98000 9.43355 18179 ft 458 kts 47°
2026-04-16 15:18 55.00134 9.47572 18181 ft 458 kts 47°
2026-04-16 15:18 55.02209 9.51684 18178 ft 458 kts 47°
2026-04-16 15:18 55.04318 9.55875 18179 ft 458 kts 47°
2026-04-16 15:18 55.06433 9.60087 18176 ft 458 kts 47°
2026-04-16 15:19 55.08535 9.64283 18179 ft 458 kts 47°
2026-04-16 15:19 55.10533 9.68519 18176 ft 460 kts 54°
2026-04-16 15:19 55.11996 9.73489 18183 ft 462 kts 66°
2026-04-16 15:19 55.13063 9.78809 18184 ft 463 kts 72°
2026-04-16 15:20 55.13938 9.84221 18178 ft 462 kts 74°
2026-04-16 15:20 55.14756 9.89651 18180 ft 461 kts 75°
2026-04-16 15:20 55.15587 9.95071 18182 ft 461 kts 74°
2026-04-16 15:20 55.16453 10.00467 18180 ft 461 kts 73°
2026-04-16 15:21 55.17352 10.05839 18179 ft 460 kts 72°
2026-04-16 15:21 55.18278 10.11208 18178 ft 460 kts 72°
2026-04-16 15:21 55.19215 10.16560 18176 ft 460 kts 72°
2026-04-16 15:21 55.20159 10.21917 18177 ft 460 kts 72°